RYR235W EGPH-EGJJ

Flight info

Callsign RYR235W
Flight time N/A
Altitude 37000
Route GOSAM P600 FENIK L612 NAVSO DCT ADZOP DCT EGTOC DCT KEPAD L151 KIDLI UN859 CPT Y321 PEPIS/N0446F360 Q41 SAM/N0447F370 M195 MARUK N621 LELNA
Aircraft B738/M-SABDFGRVYL/LB2

Departure

Time 2026-04-25 14:10
Airport Edinburgh Airport (EGPH)

Arrival

Time N/A
Airport Jersey Airport (EGJJ)
Time Latitude Longitude Altitude Speed Heading
2026-04-25 13:42 55.95019 -3.36014 102 ft 0 kts 244°
2026-04-25 14:00 55.95028 -3.35986 102 ft 2 kts 234°
2026-04-25 14:00 55.95038 -3.35965 103 ft 2 kts 227°
2026-04-25 14:00 55.95049 -3.35946 103 ft 2 kts 220°
2026-04-25 14:01 55.95060 -3.35929 104 ft 2 kts 219°
2026-04-25 14:01 55.95066 -3.35908 104 ft 2 kts 280°
2026-04-25 14:01 55.95064 -3.35896 104 ft 1 kts 308°
2026-04-25 14:01 55.95061 -3.35888 104 ft 0 kts 301°
2026-04-25 14:04 55.95062 -3.35892 104 ft 0 kts 301°
2026-04-25 14:05 55.95069 -3.35912 104 ft 5 kts 301°
2026-04-25 14:05 55.95099 -3.36035 102 ft 16 kts 289°
2026-04-25 14:05 55.95133 -3.36246 102 ft 16 kts 263°
2026-04-25 14:05 55.95092 -3.36413 102 ft 13 kts 245°
2026-04-25 14:06 55.95057 -3.36541 101 ft 8 kts 245°
2026-04-25 14:06 55.95047 -3.36578 101 ft 0 kts 234°
2026-04-25 14:06 55.95016 -3.36635 102 ft 10 kts 237°
2026-04-25 14:06 55.94984 -3.36727 101 ft 9 kts 239°
2026-04-25 14:07 55.94920 -3.36914 100 ft 26 kts 238°
2026-04-25 14:07 55.94797 -3.37278 101 ft 42 kts 239°
2026-04-25 14:07 55.94630 -3.37766 103 ft 48 kts 239°
2026-04-25 14:07 55.94466 -3.38251 110 ft 43 kts 239°
2026-04-25 14:08 55.94325 -3.38668 112 ft 33 kts 239°
2026-04-25 14:08 55.94291 -3.38841 115 ft 5 kts 296°
2026-04-25 14:08 55.94317 -3.38892 115 ft 7 kts 320°
2026-04-25 14:08 55.94407 -3.38949 113 ft 16 kts 23°
2026-04-25 14:09 55.94454 -3.38857 112 ft 0 kts 58°
2026-04-25 14:10 55.94476 -3.38794 111 ft 32 kts 59°
2026-04-25 14:10 55.94754 -3.37975 103 ft 120 kts 59°
2026-04-25 14:10 55.95303 -3.36348 331 ft 160 kts 59°
2026-04-25 14:10 55.95831 -3.34804 1015 ft 154 kts 59°
2026-04-25 14:11 55.96551 -3.33261 1588 ft 174 kts 43°
2026-04-25 14:11 55.97493 -3.31835 2176 ft 187 kts 42°
2026-04-25 14:11 55.98520 -3.30220 2683 ft 206 kts 43°
2026-04-25 14:11 55.99641 -3.28440 3194 ft 226 kts 38°
2026-04-25 14:12 56.01086 -3.27241 3721 ft 242 kts
2026-04-25 14:12 56.02816 -3.27387 4319 ft 256 kts 345°
2026-04-25 14:12 56.04448 -3.28642 5095 ft 261 kts 326°
2026-04-25 14:12 56.05731 -3.30886 5744 ft 262 kts 301°
2026-04-25 14:13 56.06278 -3.34018 5928 ft 264 kts 274°
2026-04-25 14:13 56.05994 -3.37211 5931 ft 264 kts 252°
2026-04-25 14:13 56.05105 -3.40096 5936 ft 267 kts 232°
2026-04-25 14:13 56.03669 -3.42188 5936 ft 270 kts 213°
2026-04-25 14:14 56.02081 -3.43963 5931 ft 268 kts 223°
2026-04-25 14:14 56.01031 -3.46645 5938 ft 264 kts 252°
2026-04-25 14:14 56.00621 -3.49804 5938 ft 264 kts 262°
2026-04-25 14:14 56.00328 -3.53069 5935 ft 264 kts 262°
2026-04-25 14:15 55.99972 -3.56247 5912 ft 264 kts 259°
2026-04-25 14:15 55.99833 -3.57343 5927 ft 263 kts 258°
2026-04-25 14:15 55.99095 -3.62638 5922 ft 263 kts 257°
2026-04-25 14:15 55.98637 -3.65800 6119 ft 271 kts 256°
2026-04-25 14:16 55.98151 -3.69165 6531 ft 292 kts 257°
2026-04-25 14:16 55.97626 -3.72826 6927 ft 313 kts 257°
2026-04-25 14:16 55.97073 -3.76682 7298 ft 333 kts 257°
2026-04-25 14:16 55.96478 -3.80820 7719 ft 350 kts 257°
2026-04-25 14:17 55.95864 -3.85052 8094 ft 356 kts 257°
2026-04-25 14:17 55.95239 -3.89339 8489 ft 360 kts 256°
2026-04-25 14:17 55.94610 -3.93658 8897 ft 361 kts 257°
2026-04-25 14:17 55.93960 -3.97991 9280 ft 364 kts 254°
2026-04-25 14:18 55.92857 -4.02073 9675 ft 369 kts 236°
2026-04-25 14:18 55.91072 -4.05357 10075 ft 374 kts 219°
2026-04-25 14:18 55.88961 -4.08029 10457 ft 377 kts 216°
2026-04-25 14:18 55.86786 -4.10629 10853 ft 378 kts 215°
2026-04-25 14:19 55.84607 -4.13219 11248 ft 380 kts 215°
2026-04-25 14:19 55.82401 -4.15849 11651 ft 381 kts 215°
2026-04-25 14:19 55.80185 -4.18505 12049 ft 382 kts 215°
2026-04-25 14:19 55.77999 -4.21143 12438 ft 384 kts 216°
2026-04-25 14:20 55.75787 -4.23783 12830 ft 385 kts 213°
2026-04-25 14:20 55.74227 -4.25331 13105 ft 386 kts 206°
2026-04-25 14:20 55.70721 -4.26730 13638 ft 393 kts 180°
2026-04-25 14:20 55.68037 -4.25778 14040 ft 398 kts 160°
2026-04-25 14:21 55.65586 -4.23582 14443 ft 401 kts 151°
2026-04-25 14:21 55.63172 -4.21131 14836 ft 403 kts 151°
2026-04-25 14:21 55.60720 -4.18654 15240 ft 405 kts 151°
2026-04-25 14:21 55.58293 -4.16235 15650 ft 406 kts 152°
2026-04-25 14:22 55.55834 -4.13810 16065 ft 408 kts 152°
2026-04-25 14:22 55.53338 -4.11367 16474 ft 410 kts 152°
2026-04-25 14:22 55.50828 -4.08920 16878 ft 412 kts 152°
2026-04-25 14:22 55.48319 -4.06481 17284 ft 413 kts 152°
2026-04-25 14:23 55.45831 -4.04066 17696 ft 414 kts 152°
2026-04-25 14:23 55.43281 -4.01594 18101 ft 417 kts 152°
2026-04-25 14:23 55.40756 -3.99150 18503 ft 419 kts 152°
2026-04-25 14:23 55.38192 -3.96672 18911 ft 421 kts 152°
2026-04-25 14:24 55.35633 -3.94201 19309 ft 424 kts 152°
2026-04-25 14:24 55.33051 -3.91713 19706 ft 425 kts 152°
2026-04-25 14:24 55.30468 -3.89227 20103 ft 428 kts 152°
2026-04-25 14:24 55.27873 -3.86734 20502 ft 429 kts 152°
2026-04-25 14:25 55.25248 -3.84222 20908 ft 431 kts 153°
2026-04-25 14:25 55.22601 -3.81856 21311 ft 432 kts 156°
2026-04-25 14:25 55.19814 -3.79829 21720 ft 435 kts 160°
2026-04-25 14:25 55.18848 -3.79217 21859 ft 436 kts 161°
2026-04-25 14:26 55.14069 -3.76514 22534 ft 438 kts 164°
2026-04-25 14:26 55.11124 -3.74961 22952 ft 440 kts 164°
2026-04-25 14:26 55.08216 -3.73440 23359 ft 443 kts 164°
2026-04-25 14:26 55.05253 -3.71885 23775 ft 445 kts 164°
2026-04-25 14:27 55.02279 -3.70313 24196 ft 447 kts 164°
2026-04-25 14:27 54.99301 -3.68728 24613 ft 451 kts 163°
2026-04-25 14:27 54.96333 -3.67140 25026 ft 454 kts 163°
2026-04-25 14:27 54.93298 -3.65510 25446 ft 457 kts 163°
2026-04-25 14:28 54.90248 -3.63868 25861 ft 460 kts 163°
2026-04-25 14:28 54.87202 -3.62226 26273 ft 463 kts 163°
2026-04-25 14:28 54.84141 -3.60576 26688 ft 463 kts 163°
2026-04-25 14:28 54.81071 -3.58921 27104 ft 463 kts 163°
2026-04-25 14:29 54.77982 -3.57259 27522 ft 463 kts 163°
2026-04-25 14:29 54.74929 -3.55616 27937 ft 462 kts 163°
2026-04-25 14:29 54.71874 -3.53975 28361 ft 461 kts 163°
2026-04-25 14:29 54.68816 -3.52335 28786 ft 460 kts 163°
2026-04-25 14:30 54.65755 -3.50696 29213 ft 460 kts 163°
2026-04-25 14:30 54.59669 -3.47446 30064 ft 459 kts 163°
2026-04-25 14:30 54.56668 -3.45847 30488 ft 457 kts 163°
2026-04-25 14:31 54.53618 -3.44224 30898 ft 456 kts 163°
2026-04-25 14:31 54.50618 -3.42632 31324 ft 454 kts 163°
2026-04-25 14:31 54.47598 -3.41031 31745 ft 454 kts 163°
2026-04-25 14:31 54.44587 -3.39438 32171 ft 453 kts 163°
2026-04-25 14:32 54.41583 -3.37850 32595 ft 453 kts 163°
2026-04-25 14:32 54.38603 -3.36277 33010 ft 452 kts 163°
2026-04-25 14:32 54.35616 -3.34702 33512 ft 449 kts 164°
2026-04-25 14:32 54.35583 -3.34685 33518 ft 449 kts 164°
2026-04-25 14:33 54.34510 -3.34120 33706 ft 448 kts 164°
2026-04-25 14:33 54.31539 -3.32557 34243 ft 444 kts 164°
2026-04-25 14:33 54.28585 -3.31006 34747 ft 440 kts 164°
2026-04-25 14:33 54.28392 -3.30904 34777 ft 440 kts 164°
2026-04-25 14:38 54.25236 -3.29249 35292 ft 435 kts 164°
2026-04-25 14:39 54.22391 -3.27761 35755 ft 429 kts 164°
2026-04-25 14:39 54.19539 -3.26360 36222 ft 423 kts 167°
2026-04-25 14:39 54.16689 -3.25327 36731 ft 416 kts 172°
2026-04-25 14:39 54.13865 -3.24661 37166 ft 412 kts 175°
2026-04-25 14:40 54.08115 -3.23753 37192 ft 420 kts 176°
2026-04-25 14:40 54.02195 -3.22951 37189 ft 430 kts 175°
2026-04-25 14:41 53.96338 -3.20670 37200 ft 440 kts 163°
2026-04-25 14:41 53.90528 -3.17030 37193 ft 447 kts 160°
2026-04-25 14:42 53.85747 -3.13806 37194 ft 445 kts 159°
2026-04-25 14:42 53.79031 -3.09327 37190 ft 446 kts 160°
2026-04-25 14:43 53.73244 -3.05557 37184 ft 445 kts 160°
2026-04-25 14:43 53.67504 -3.01870 37180 ft 444 kts 160°
2026-04-25 14:44 53.61700 -2.98171 37180 ft 446 kts 160°
2026-04-25 14:44 53.55938 -2.94515 37184 ft 446 kts 160°
2026-04-25 14:45 53.50178 -2.90872 37186 ft 446 kts 160°
2026-04-25 14:45 53.44371 -2.87208 37180 ft 446 kts 160°
2026-04-25 14:46 53.38550 -2.83548 37177 ft 446 kts 161°
2026-04-25 14:46 53.32771 -2.79925 37180 ft 446 kts 161°
2026-04-25 14:47 53.27912 -2.76887 37176 ft 446 kts 161°
2026-04-25 14:47 53.21202 -2.72706 37177 ft 446 kts 161°
2026-04-25 14:48 53.15405 -2.69104 37171 ft 447 kts 161°
2026-04-25 14:48 53.09609 -2.65512 37173 ft 447 kts 161°
2026-04-25 14:49 53.03772 -2.61905 37173 ft 447 kts 160°
2026-04-25 14:49 52.97973 -2.58331 37171 ft 447 kts 161°
2026-04-25 14:50 52.92122 -2.54735 37174 ft 448 kts 161°
2026-04-25 14:50 52.86321 -2.51182 37172 ft 448 kts 161°
2026-04-25 14:51 52.80594 -2.47202 37179 ft 449 kts 154°
2026-04-25 14:51 52.75240 -2.41916 37184 ft 450 kts 148°
2026-04-25 14:52 52.70085 -2.36180 37186 ft 451 kts 146°
2026-04-25 14:52 52.65828 -2.31384 37189 ft 451 kts 147°
2026-04-25 14:53 52.59811 -2.24683 37187 ft 451 kts 148°
2026-04-25 14:53 52.54620 -2.18972 37188 ft 451 kts 148°
2026-04-25 14:54 52.49396 -2.13265 37187 ft 451 kts 148°
2026-04-25 14:54 52.44241 -2.07658 37188 ft 451 kts 148°
2026-04-25 14:55 52.39021 -2.02000 37187 ft 451 kts 148°
2026-04-25 14:55 52.33796 -1.96355 37185 ft 451 kts 148°
2026-04-25 14:56 52.28579 -1.90737 37180 ft 451 kts 148°
2026-04-25 14:56 52.23343 -1.85113 37179 ft 451 kts 148°
2026-04-25 14:57 52.18113 -1.79513 37178 ft 452 kts 148°
2026-04-25 14:57 52.16204 -1.77473 37179 ft 452 kts 148°
2026-04-25 14:58 52.14894 -1.76073 37179 ft 452 kts 148°
2026-04-25 14:58 52.09629 -1.70460 37177 ft 452 kts 148°
2026-04-25 14:59 52.04401 -1.64898 37182 ft 451 kts 148°
2026-04-25 14:59 51.99174 -1.59344 37186 ft 452 kts 148°
2026-04-25 15:00 51.93919 -1.53794 37187 ft 451 kts 148°
2026-04-25 15:00 51.88685 -1.48287 37188 ft 452 kts 148°
2026-04-25 15:01 51.83435 -1.42776 37187 ft 452 kts 148°
2026-04-25 15:01 51.78100 -1.37394 37187 ft 451 kts 152°
2026-04-25 15:02 51.72368 -1.33379 37186 ft 450 kts 163°
2026-04-25 15:02 51.66423 -1.30336 37187 ft 448 kts 166°
2026-04-25 15:03 51.60495 -1.27489 37191 ft 447 kts 166°
2026-04-25 15:03 51.54565 -1.24614 37191 ft 448 kts 165°
2026-04-25 15:04 51.48505 -1.22502 37193 ft 444 kts 176°
2026-04-25 15:04 51.42361 -1.22265 37186 ft 442 kts 184°
2026-04-25 15:05 51.36228 -1.22775 37186 ft 442 kts 186°
2026-04-25 15:06 51.27074 -1.23676 37185 ft 442 kts 186°
2026-04-25 15:06 51.20961 -1.24347 37184 ft 441 kts 189°
2026-04-25 15:07 51.14965 -1.26154 37183 ft 440 kts 196°
2026-04-25 15:07 51.09074 -1.28605 37177 ft 440 kts 198°
2026-04-25 15:08 51.03178 -1.31172 37180 ft 440 kts 198°
2026-04-25 15:08 50.97332 -1.33943 37180 ft 439 kts 204°
2026-04-25 15:09 50.91884 -1.38236 37181 ft 437 kts 213°
2026-04-25 15:09 50.84249 -1.46011 36541 ft 441 kts 216°
2026-04-25 15:10 50.81684 -1.48723 35875 ft 444 kts 216°
2026-04-25 15:10 50.79108 -1.51440 35193 ft 446 kts 216°
2026-04-25 15:10 50.73949 -1.56848 33659 ft 450 kts 216°
2026-04-25 15:11 50.71354 -1.59548 32846 ft 451 kts 216°
2026-04-25 15:11 50.68731 -1.62266 32029 ft 452 kts 216°
2026-04-25 15:11 50.66136 -1.64948 31226 ft 453 kts 217°
2026-04-25 15:12 50.60871 -1.70366 29604 ft 453 kts 216°
2026-04-25 15:12 50.58259 -1.73046 28798 ft 453 kts 216°
2026-04-25 15:12 50.55608 -1.75761 27986 ft 453 kts 216°